Regional Weather Roundup
Issued by NWS

Home | Current Version | Previous Version | Graphics & Text | Print | Product List | Glossary On
Versions: 1 2 3 4 5 6 7 8 9 10 11 12 13 14 15 16 17 18 19 20 21 22 23 24 25 26 27 28 29 30 31 32 33 34 35 36 37 38 39 40 41 42 43 44 45 46 47 48 49 50
000
ASUS43 KFSD 230410
RWRSD

WEATHER ROUNDUP FOR SOUTH DAKOTA
NATIONAL WEATHER SERVICE SIOUX FALLS SD
1100 PM CDT TUE JUL 22 2014

NOTE: "FAIR" INDICATES FEW OR NO CLOUDS BELOW 12,000 FEET WITH NO
SIGNIFICANT WEATHER AND/OR OBSTRUCTIONS TO VISIBILITY.


SDZ001>005-009-010-012>017-230500-
NORTHWEST AND NORTH CENTRAL SOUTH DAKOTA

CITY           SKY/WX    TMP DP  RH WIND       PRES   REMARKS
BUFFALO          N/A     62  58  86 SE13      30.19R
FAITH            N/A     68  59  73 SE15      30.21F
MOBRIDGE       LGT RAIN  71  63  75 SE7       30.21F
$$

SDZ012>016-024>037-041>051-057-063-072>074-230500-
SOUTHWEST AND SOUTH CENTRAL SOUTH DAKOTA

CITY           SKY/WX    TMP DP  RH WIND       PRES   REMARKS
RAPID CTY ARPT TSTM      68  63  84 VRB5      30.30R
PIERRE         CLOUDY    73  60  63 NE12      30.27R
CUSTER         CLOUDY    61  58  90 N6        30.40R
ELLSWORTH AFB  TSTM      70  65  84 E6        30.30R
PHILIP         CLOUDY    77  57  50 E14       30.24R
PINE RIDGE     TSTM      68  64  87 NE20G35   30.30R FOG
WINNER         FAIR      70  58  65 NE7       30.27R
$$

SDZ004>011-016>023-039-040-230500-
NORTHEAST SOUTH DAKOTA

CITY           SKY/WX    TMP DP  RH WIND       PRES   REMARKS
ABERDEEN       MOCLDY    63  59  87 CALM      30.26R
WATERTOWN      CLEAR     61  57  87 NE6       30.25S
SISSETON         N/A     63  60  90 NW5       30.24R
$$

SDZ017-020-022-023-036>040-048>070-230500-
SOUTHEAST SOUTH DAKOTA

CITY           SKY/WX    TMP DP  RH WIND       PRES   REMARKS
SIOUX FALLS    PTCLDY    66  59  78 N6        30.23R
HURON          PTCLDY    68  58  70 N3        30.25R
CHAMBERLAIN    MOCLDY    72  59  63 NE6       30.26S
MITCHELL       MOCLDY    68  61  78 N3        30.23R
YANKTON        CLEAR     70  61  73 N8        30.20S
$$

ABBREVIATIONS USED IN REMARKS
   TC - TEMPERATURE IN CELSIUS
  WCI - WIND CHILL INDEX
   HX - HEAT INDEX
  VSB - VISIBILITY




USA.gov is the U.S. government's official web portal to all federal, state and local government web resources and services.